カタログに戻る

GLOBALSTAR M048

運用中通信UNKNOWN
NORAD 25872·PAYLOAD·🇺🇸 United States

打ち上げ Jul 25, 1999 から Cape Canaveral Space Force Station

Loading…

次のパス (今後24時間)

TLE

最新Source: Space-Track

元期: Sep 14, 2026, 11:08 UTC

1 25872U 99041A   26257.46434984 -.00000050  00000-0  53920-3 0  9999
2 25872  51.9407 337.5958 0012993 250.3206 122.5559 11.33865391176513

AllMySatでGLOBALSTAR M048をリアルタイム追跡

Download on the App Store